Date String (YYYY-MM-DD hh:mm:ss) UTC,Instrument flags,Ambient pressure (hPa),Sample flow (lpm),Bypass flow (lpm),Sample temperature (°C),Ambient temperature (°C),ASC tube jacket temperature (°C),LED temperature (°C),Box temperature (°C),Sample RH (%),Span deviation,Mass concentration (μg/m³),Mass concentration (μg/m³),Mass concentration (μg/m³)
DateTimeUTC,F1_M11,P_M11,Q1_M11,Q2_M11,T1_M11,T2_M11,T3_M11,T4_M11,T5_M11,U1_M11,ZSPAN_M11,X0_M11,X2_M11,X1_M11
2022-09-09 20:00:00,,0826.9,5.01,0.00,30.8,29.6,00.0,39.6,32.6,22.5,0001.9,0022.14,0013.79,0012.67
2022-09-09 20:01:00,,0826.9,4.98,0.00,30.8,29.6,00.0,39.6,32.6,22.3,0001.7,0022.23,0013.77,0012.68
2022-09-09 20:02:00,,0827.0,5.01,0.00,30.8,29.6,00.0,39.6,32.7,22.4,0001.3,0022.20,0013.73,0012.67
2022-09-09 20:03:00,,0827.0,5.00,0.00,30.8,29.6,00.0,39.6,32.7,22.4,0001.0,0021.75,0013.70,0012.66
2022-09-09 20:04:00,,0827.1,4.99,0.00,30.9,29.6,00.0,39.7,32.7,22.4,0001.1,0021.75,0013.74,0012.66
2022-09-09 20:05:00,,0827.0,5.01,0.00,30.9,29.7,00.0,39.7,32.7,22.3,0001.1,0021.76,0013.73,0012.66
2022-09-09 20:06:00,,0827.0,5.01,0.00,30.9,29.7,00.0,39.7,32.7,22.3,0001.5,0021.95,0013.75,0012.69
2022-09-09 20:07:00,,0827.1,4.98,0.00,30.9,29.7,00.0,39.7,32.7,22.3,0001.4,0022.67,0013.85,0012.71
2022-09-09 20:08:00,,0826.9,5.01,0.00,30.9,29.6,00.0,39.7,32.7,22.3,0001.4,0022.35,0013.81,0012.69
2022-09-09 20:09:00,,0827.3,5.00,0.00,30.9,29.7,00.0,39.7,32.7,22.3,0001.3,0021.91,0013.74,0012.66
2022-09-09 20:10:00,,0827.0,4.99,0.00,30.9,29.7,00.0,39.7,32.7,22.2,0001.5,0022.07,0013.71,0012.65
2022-09-09 20:11:00,,0827.0,5.00,0.00,30.9,29.7,00.0,39.7,32.7,22.2,0001.9,0021.59,0013.70,0012.64
2022-09-09 20:12:00,,0827.0,5.01,0.00,30.9,29.7,00.0,39.7,32.7,22.2,0001.9,0021.57,0013.68,0012.61
2022-09-09 20:13:00,,0826.9,4.99,0.00,30.9,29.7,00.0,39.7,32.7,22.1,0001.8,0021.86,0013.65,0012.58
2022-09-09 20:14:00,,0826.9,5.01,0.00,30.9,29.7,00.0,39.7,32.7,22.2,0001.5,0022.15,0013.62,0012.56
2022-09-09 20:15:00,,0827.1,5.00,0.00,30.9,29.7,00.0,39.7,32.7,22.1,0001.4,0021.86,0013.56,0012.52
2022-09-09 20:16:00,,0827.2,4.99,0.00,31.0,29.7,00.0,39.8,32.8,22.2,0001.2,0021.45,0013.52,0012.49
2022-09-09 20:17:00,,0827.1,5.01,0.00,31.0,29.7,00.0,39.8,32.8,22.1,0000.8,0021.37,0013.48,0012.42
2022-09-09 20:18:00,,0827.1,5.00,0.00,31.0,29.7,00.0,39.8,32.8,22.1,0001.1,0020.56,0013.36,0012.35
2022-09-09 20:19:00,,0827.3,5.00,0.00,31.0,29.7,00.0,39.8,32.8,22.1,0001.3,0021.06,0013.28,0012.31
2022-09-09 20:20:00,,0826.9,5.01,0.00,31.0,29.7,00.0,39.8,32.8,22.1,0001.3,0021.15,0013.19,0012.29
2022-09-09 20:21:00,,0827.0,4.99,0.00,31.0,29.7,00.0,39.8,32.8,22.1,0001.2,0021.16,0013.16,0012.28
2022-09-09 20:22:00,,0827.0,5.00,0.00,31.0,29.7,00.0,39.8,32.8,22.0,0001.3,0020.90,0013.17,0012.30
2022-09-09 20:23:00,,0827.0,5.00,0.00,31.0,29.7,00.0,39.8,32.8,22.0,0001.1,0021.34,0013.12,0012.28
2022-09-09 20:24:00,,0827.0,4.99,0.00,31.0,29.7,00.0,39.8,32.8,22.1,0001.0,0020.76,0013.13,0012.27
2022-09-09 20:25:00,,0827.0,4.99,0.00,31.0,29.7,00.0,39.8,32.8,22.1,0001.4,0020.37,0013.12,0012.24
2022-09-09 20:26:00,,0827.0,5.01,0.00,31.0,29.8,00.0,39.8,32.8,22.1,0001.2,0021.13,0013.13,0012.23
2022-09-09 20:27:00,,0827.1,4.99,0.00,31.0,29.8,00.0,39.8,32.8,22.0,0001.3,0021.04,0013.11,0012.23
2022-09-09 20:28:00,,0827.3,5.01,0.00,31.0,29.8,00.0,39.8,32.8,22.0,0001.5,0021.38,0013.11,0012.23
2022-09-09 20:29:00,,0827.2,5.01,0.00,31.0,29.8,00.0,39.8,32.8,22.1,0001.3,0021.69,0013.10,0012.25
2022-09-09 20:30:00,,0827.2,4.99,0.00,31.0,29.8,00.0,39.8,32.8,22.0,0001.2,0020.76,0013.10,0012.23
2022-09-09 20:31:00,,0827.1,5.01,0.00,31.1,29.8,00.0,39.8,32.8,21.8,0000.9,0020.67,0013.20,0012.25
2022-09-09 20:32:00,,0827.0,5.01,0.00,31.1,29.8,00.0,39.9,32.8,21.8,0000.9,0020.29,0013.26,0012.27
2022-09-09 20:33:00,,0827.0,4.98,0.00,31.1,29.8,00.0,39.9,32.8,21.9,0000.8,0019.96,0013.27,0012.28
2022-09-09 20:34:00,,0827.0,5.01,0.00,31.1,29.8,00.0,39.9,32.8,21.9,0000.8,0019.30,0013.35,0012.30
2022-09-09 20:35:00,,0827.0,4.99,0.00,31.1,29.8,00.0,39.9,32.9,21.8,0001.2,0019.99,0013.37,0012.33
2022-09-09 20:36:00,,0827.0,5.00,0.00,31.1,29.8,00.0,39.9,32.9,21.8,0001.3,0020.36,0013.42,0012.37
2022-09-09 20:37:00,,0827.1,5.01,0.00,31.1,29.8,00.0,39.9,32.9,21.7,0001.7,0020.05,0013.46,0012.43
2022-09-09 20:38:00,,0827.3,5.00,0.00,31.1,29.8,00.0,39.9,32.9,21.8,0001.6,0020.59,0013.51,0012.47
2022-09-09 20:39:00,,0827.2,4.99,0.00,31.1,29.8,00.0,39.9,32.9,21.8,0001.3,0021.17,0013.52,0012.47
2022-09-09 20:40:00,,0827.2,5.00,0.00,31.1,29.8,00.0,39.9,32.9,21.8,0001.4,0021.97,0013.59,0012.51
2022-09-09 20:41:00,,0827.6,5.00,0.00,31.1,29.8,00.0,39.9,32.9,21.9,0001.4,0022.95,0013.62,0012.53
2022-09-09 20:42:00,,0827.3,5.00,0.00,31.1,29.8,00.0,39.9,32.9,21.8,0001.7,0022.79,0013.58,0012.52
2022-09-09 20:43:00,,0827.1,5.00,0.00,31.1,29.8,00.0,39.9,32.9,21.7,0002.0,0022.71,0013.53,0012.53
2022-09-09 20:44:00,,0827.1,5.01,0.00,31.1,29.8,00.0,39.9,32.9,21.6,0002.0,0023.07,0013.51,0012.52
2022-09-09 20:45:00,,0827.1,4.98,0.00,31.1,29.8,00.0,39.9,32.9,21.7,0002.1,0023.89,0013.50,0012.53
2022-09-09 20:46:00,,0827.1,5.01,0.00,31.1,29.8,00.0,39.9,32.9,21.7,0002.3,0023.26,0013.52,0012.52
2022-09-09 20:47:00,,0827.3,5.01,0.00,31.1,29.8,00.0,39.9,32.9,21.7,0002.1,0023.23,0013.52,0012.53
2022-09-09 20:48:00,,0827.4,5.00,0.00,31.1,29.8,00.0,39.9,32.9,21.7,0002.2,0023.59,0013.48,0012.52
2022-09-09 20:49:00,,0827.2,5.00,0.00,31.1,29.8,00.0,39.9,32.9,21.7,0002.4,0023.42,0013.46,0012.50
2022-09-09 20:50:00,,0827.1,5.01,0.00,31.1,29.8,00.0,39.9,32.9,21.7,0002.6,0023.42,0013.47,0012.51
2022-09-09 20:51:00,,0827.2,4.99,0.00,31.1,29.8,00.0,39.9,32.9,21.7,0002.5,0022.59,0013.45,0012.49
2022-09-09 20:52:00,,0827.2,5.00,0.00,31.1,29.8,00.0,39.9,32.9,21.8,0002.4,0022.54,0013.48,0012.50
2022-09-09 20:53:00,,0827.3,5.01,0.00,31.1,29.8,00.0,39.9,32.9,21.7,0002.3,0023.31,0013.51,0012.50
2022-09-09 20:54:00,,0827.2,4.99,0.00,31.1,29.8,00.0,39.9,32.9,21.7,0002.1,0023.60,0013.52,0012.48
2022-09-09 20:55:00,,0827.2,5.01,0.00,31.1,29.8,00.0,39.9,32.9,21.6,0002.3,0023.64,0013.54,0012.49
2022-09-09 20:56:00,,0827.2,5.00,0.00,31.1,29.8,00.0,39.9,32.9,21.7,0002.0,0022.94,0013.52,0012.47
2022-09-09 20:57:00,,0827.2,5.00,0.00,31.1,29.8,00.0,39.9,32.9,21.7,0001.9,0023.00,0013.49,0012.47
2022-09-09 20:58:00,,0827.2,5.00,0.00,31.1,29.8,00.0,40.0,32.9,21.7,0002.1,0022.47,0013.45,0012.44
2022-09-09 20:59:00,,0827.2,5.01,0.00,31.1,29.9,00.0,40.0,32.9,21.7,0001.6,0021.57,0013.49,0012.43
